TimePDT,TemperatureF,Dew PointF,Humidity,Sea Level PressureIn,VisibilityMPH,Wind Direction,Wind SpeedMPH,Gust SpeedMPH,PrecipitationIn,Events,Conditions,WindDirDegrees,DateUTC
12:54 AM,78.1,37.0,23,29.67,10.0,NNW,5.8,-,N/A,,Clear,330,2013-09-10 07:54:00
1:54 AM,77.0,37.0,24,29.68,10.0,NW,6.9,-,N/A,,Clear,320,2013-09-10 08:54:00
2:54 AM,75.0,36.0,24,29.68,10.0,NW,8.1,-,N/A,,Clear,310,2013-09-10 09:54:00
3:54 AM,70.0,36.0,29,29.69,10.0,NNW,5.8,-,N/A,,Clear,340,2013-09-10 10:54:00
4:54 AM,69.1,36.0,30,29.69,10.0,NNW,3.5,-,N/A,,Clear,330,2013-09-10 11:54:00
5:54 AM,69.1,37.9,32,29.70,10.0,NW,4.6,-,N/A,,Clear,320,2013-09-10 12:54:00
6:54 AM,69.1,36.0,30,29.72,10.0,NNW,8.1,-,N/A,,Clear,330,2013-09-10 13:54:00
7:54 AM,73.0,36.0,26,29.73,6.0,NW,5.8,-,N/A,,Haze,320,2013-09-10 14:54:00
8:54 AM,81.0,37.9,21,29.73,7.0,North,3.5,-,N/A,,Clear,350,2013-09-10 15:54:00
9:54 AM,89.1,37.9,16,29.74,10.0,NE,4.6,-,N/A,,Clear,50,2013-09-10 16:54:00
10:54 AM,91.9,39.0,16,29.73,10.0,East,3.5,-,N/A,,Clear,80,2013-09-10 17:54:00
11:54 AM,96.1,36.0,12,29.72,10.0,Calm,Calm,-,N/A,,Clear,0,2013-09-10 18:54:00
12:54 PM,100.0,33.1,10,29.70,10.0,Variable,3.5,-,N/A,,Clear,0,2013-09-10 19:54:00
1:54 PM,102.0,30.9,8,29.68,10.0,Calm,Calm,-,N/A,,Clear,0,2013-09-10 20:54:00
2:54 PM,105.1,35.1,9,29.66,10.0,SSE,11.5,-,N/A,,Clear,150,2013-09-10 21:54:00
3:54 PM,104.0,41.0,12,29.65,10.0,SSE,16.1,20.7,N/A,,Clear,160,2013-09-10 22:54:00
4:54 PM,102.0,48.9,17,29.64,10.0,South,12.7,-,N/A,,Clear,170,2013-09-10 23:54:00
5:54 PM,98.1,50.0,20,29.65,10.0,South,15.0,-,N/A,,Clear,170,2013-09-11 00:54:00
6:54 PM,93.0,53.1,26,29.67,10.0,SSE,10.4,-,N/A,,Clear,150,2013-09-11 01:54:00
7:54 PM,86.0,59.0,40,29.70,10.0,SSE,10.4,-,N/A,,Clear,150,2013-09-11 02:54:00
8:54 PM,82.9,60.1,46,29.72,10.0,South,9.2,-,N/A,,Clear,170,2013-09-11 03:54:00
9:54 PM,81.0,55.9,42,29.75,10.0,South,12.7,-,N/A,,Clear,170,2013-09-11 04:54:00
10:54 PM,78.1,55.9,46,29.78,10.0,SSW,11.5,-,N/A,,Clear,200,2013-09-11 05:54:00
11:54 PM,73.0,57.0,57,29.81,10.0,SSW,9.2,-,N/A,,Clear,210,2013-09-11 06:54:00